This demonstration page uses our WeatherBlox Daily Observations layout. Learn more.

Left ArrowRight Arrow

41.86663, -103.66717

Hourly Observations for October 1, 2018

Temp ( °F °C ) Dew Point ( °F °C ) Humidity (%) Winds ( mph kmh ) Pressure ( in mb ) Visibility ( mi km ) Precip ( " mm )
12:53 am 00:53 Cloudy with Mist and Fog 46 7.8 46 7.8 100 100 ESE 14 22 30.08 1019 3 5 0.00 0.00
1:05 am 01:05 Cloudy with Mist and Fog 46 7.8 46 7.8 100 100 ESE 14 22 30.09 1019 4 6 0.00 0.00
1:25 am 01:25 Cloudy with Mist and Fog 46 7.8 46 7.8 100 100 ESE 13 20 30.09 1019 6 10 0.00 0.00
1:53 am 01:53 Cloudy with Mist and Fog 46 7.8 46 7.8 100 100 ESE 9 15 30.11 1020 5 8 0.00 0.00
2:53 am 02:53 Cloudy 45 7.2 45 7.2 100 100 E 13 20 30.09 1019 8 13 0.00 0.00
3:53 am 03:53 Cloudy 45 7.2 45 7.2 100 100 ESE 13 20 30.08 1019 10 16 0.00 0.00
4:53 am 04:53 Cloudy 45 7.2 45 7.2 100 100 ESE 14 22 30.07 1018 10 16 0.00 0.00
5:51 am 05:51 Cloudy with Mist and Fog 45 7 45 7 100 100 SE 15 24 30.06 1018 2 3 0.00 0.00
5:53 am 05:53 Cloudy with Mist and Fog 44 6.7 44 6.7 100 100 SE 15 24 30.05 1018 2 3 0.00 0.00
6:03 am 06:03 Cloudy 44 6.7 44 6.7 100 100 SE 10 17 30.09 1019 10 16 0.00 0.00
6:53 am 06:53 Cloudy 44 6.7 44 6.7 100 100 SE 8 13 30.09 1019 7 11 0.00 0.00
7:24 am 07:24 Cloudy 45 7.2 45 7.2 100 100 SE 8 13 30.12 1020 10 16 0.00 0.00
7:53 am 07:53 Cloudy 46 7.8 46 7.8 100 100 ESE 10 17 30.09 1019 10 16 0.00 0.00
8:53 am 08:53 Cloudy 49 9.4 48 8.9 97 97 SSE 7 11 30.11 1020 10 16 0.00 0.00
9:53 am 09:53 Partly Cloudy 52 11.1 47 8.3 83 83 S 6 9 30.11 1020 10 16 0.00 0.00
10:53 am 10:53 Sunny 57 13.9 49 9.4 74 74 VRB 3 6 30.08 1019 10 16 0.00 0.00
11:53 am 11:53 Sunny 62 16.7 50 10 65 65 VRB 5 7 30.05 1018 10 16 0.00 0.00
12:53 pm 12:53 Sunny 70 21.1 49 9.4 47 47 SE 12 19 29.99 1016 10 16 0.00 0.00
1:53 pm 13:53 Sunny 73 22.8 50 10 44 44 ESE 10 17 29.95 1014 10 16 0.00 0.00
2:53 pm 14:53 Sunny 74 23.3 50 10 43 43 ESE 14 22 29.93 1014 10 16 0.00 0.00
3:53 pm 15:53 Sunny 73 22.8 50 10 44 44 ESE 16 26 29.94 1014 10 16 0.00 0.00
4:53 pm 16:53 Sunny 73 22.8 51 10.6 46 46 SE 13 20 29.94 1014 10 16 0.00 0.00
5:53 pm 17:53 Sunny 71 21.7 50 10 47 47 SE 13 20 29.94 1014 10 16 0.00 0.00
6:53 pm 18:53 Clear 66 18.9 50 10 56 56 SE 14 22 29.98 1015 10 16 0.00 0.00
7:53 pm 19:53 Clear 60 15.6 49 9.4 67 67 ESE 12 19 29.98 1015 10 16 0.00 0.00
8:53 pm 20:53 Clear 56 13.3 49 9.4 77 77 E 12 19 30.00 1016 10 16 0.00 0.00
9:53 pm 21:53 Clear 54 12.2 49 9.4 83 83 ESE 13 20 29.99 1016 10 16 0.00 0.00
10:53 pm 22:53 Clear 52 11.1 50 10 93 93 ESE 8 13 29.98 1015 10 16 0.00 0.00
11:53 pm 23:53 Clear 51 10.6 49 9.4 92 92 ENE 8 13 29.96 1015 10 16 0.00 0.00

Powered by AerisWeather